Regional Weather Roundup
Issued by NWS

Home | Current Version | Previous Version | Text Only | Print | Product List | Glossary On
Versions: 1 2 3 4 5 6 7 8 9 10 11 12 13 14 15 16 17 18 19 20 21 22 23 24 25 26 27 28 29 30 31 32 33 34 35 36 37 38 39 40 41 42 43 44 45 46 47 48 49 50
837
ASUS46 KPQR 232110
RWROR

OREGON REGIONAL WEATHER ROUNDUP
NATIONAL WEATHER SERVICE PORTLAND OR
100 PM PST MON JAN 23 2017

NOTE: "FAIR" INDICATES FEW OR NO CLOUDS BELOW 12,000 FEET WITH
NO SIGNIFICANT WEATHER AND/OR OBSTRUCTIONS TO VISIBILITY.

ORZ001>013-232200-
NORTHWEST OREGON


CITY           SKY/WX    TMP DP  RH WIND       PRES   REMARKS
ASTORIA        SUNNY     51  36  56 NE5       29.79R
NEWPORT        MOSUNNY   52  34  50 S3        29.77R
PORTLAND       MOSUNNY   45  35  68 W3        29.81S
VANCOUVER WA   MOSUNNY   44  36  73 W6        29.80S
SCAPPOOSE      MOSUNNY   48  36  63 W3        29.79F
HILLSBORO      MOSUNNY   44  39  82 NW3       29.79S
AURORA         MOSUNNY   52  36  54 NE6       29.79R
MCMINNVILLE    MOSUNNY   50  38  63 NE5       29.79S
SALEM          SUNNY     49  36  61 N8        29.77S
CORVALLIS        N/A     48  36  61 NE7       29.77S
EUGENE         MOSUNNY   48  38  68 N8        29.75S
$$

ORZ021-028-232200-
SOUTHWEST OREGON


CITY           SKY/WX    TMP DP  RH WIND       PRES   REMARKS
NORTH BEND     MOSUNNY   50  36  57 S10       29.72R
BROOKINGS      PTSUNNY   49  39  68 SE14      29.70S
ROSEBURG       MOSUNNY   49  35  58 W3        29.71S
SEXTON SUMMIT  MOSUNNY   32  31  96 VRB6      29.63R WCI  26
MEDFORD        MOSUNNY   41  34  76 CALM      29.71F
$$

ORZ014>016-041-232200-
COLUMBIA GORGE


CITY           SKY/WX    TMP DP  RH WIND       PRES   REMARKS
TROUTDALE      MOSUNNY   47  36  65 E10       29.80R
THE DALLES     CLOUDY    36  34  92 CALM      29.87R FOG
$$

ORZ029>031-041-044-049-050-061>064-502-503-505>511-232200-
EASTERN OREGON


CITY           SKY/WX    TMP DP  RH WIND       PRES   REMARKS
REDMOND        MOSUNNY   34  26  72 CALM      29.72R
BEND           SUNNY     32  27  80 CALM      29.71R
PRINEVILLE     MOSUNNY   32  28  86 CALM      29.72S
KLAMATH FALLS  SUNNY     27  24  89 CALM      29.68S
LAKEVIEW       PTSUNNY   30  21  69 SE9       29.69S WCI  22
HERMISTON      CLOUDY    32  32 100 SW3       29.84R FOG
PENDLETON      CLOUDY    30  30 100 S3        29.80R FOG
JOHN DAY       CLOUDY    33  27  79 W10       29.68R WCI  25
MEACHAM        CLOUDY    30  21  69 VRB3      29.67R
LA GRANDE      CLOUDY    30  25  80 N7        29.68S WCI  23
BAKER CITY     CLOUDY    25  23  92 SW3       29.65F
BURNS          MOSUNNY   25  23  92 S9        29.64F WCI  15
ROME             N/A     36  28  73 SW6       29.62F WCI  31
ONTARIO        CLOUDY    34  27  75 NW12      29.67S WCI  25
$$




USA.gov is the U.S. government's official web portal to all federal, state and local government web resources and services.